Regional Weather Roundup
Issued by NWS

Home | Current Version | Previous Version | Graphics & Text | Print | Product List | Glossary On
Versions: 1 2 3 4 5 6 7 8 9 10 11 12 13 14 15 16 17 18 19 20 21 22 23 24 25 26 27 28 29 30 31 32 33 34 35 36 37 38 39 40 41 42 43 44 45 46 47 48 49 50
000
ASUS45 KCYS 261510
RWRWY

WYOMING REGIONAL WEATHER ROUNDUP
NATIONAL WEATHER SERVICE CHEYENNE WY
900 AM MDT TUE MAY 26 2015

NOTE:  "FAIR" INDICATES FEW OR NO CLOUDS BELOW 12,000 FEET
WITH NO SIGNIFICANT WEATHER AND/OR OBSTRUCTIONS TO VISIBILITY.

WYZ001-261600-
YELLOWSTONE NATIONAL PARK

CITY           SKY/WX    TMP DP  RH WIND       PRES   REMARKS
LK YELLOWSTONE   N/A     41  39  93 CALM      30.12S
W YELLOWSTONE  NOT AVBL

$$
WYZ002>013-054>058-071-098>099-261600-
NORTHERN WYOMING

CITY           SKY/WX    TMP DP  RH WIND       PRES   REMARKS
JACKSON        CLOUDY    46  43  87 CALM      30.08S
CODY           CLOUDY    57  45  62 W5        29.98S
GREYBULL       FAIR      58  45  62 SE5       29.96S
WORLAND        FAIR      54  48  80 CALM      29.96F
SHERIDAN       FAIR      56  47  71 CALM      29.96S
BUFFALO        FAIR      56  45  66 NE5       29.98S
GILLETTE       FAIR      57  50  77 SE7       29.97F
HULETT         CLOUDY    54  52  94 CALM      29.99F
NEWCASTLE      CLOUDY    54  50  87 SE7       30.02S

$$
WYZ014>020-022>026-101>103-261600-
CENTRAL WYOMING

CITY           SKY/WX    TMP DP  RH WIND       PRES   REMARKS
BIG PINEY      CLOUDY    44  40  85 CALM      30.11S
PINEDALE       FAIR      48  41  76 CALM      30.11S
DUBOIS         FAIR      48  39  71 N10       30.07S
LANDER         FAIR      56  44  64 SE8       30.00S
RIVERTON         N/A     52  41  66 VRB3      30.03R
CASPER         FAIR      56  45  66 SW14        N/A
DOUGLAS        FAIR      56  47  71 SE8       30.02S

$$
WYZ021-027>030-104>119-261600-
SOUTHERN WYOMING

CITY           SKY/WX    TMP DP  RH WIND       PRES   REMARKS
EVANSTON       LGT RAIN  43  41  93 N5        30.12R FOG
KEMMERER       CLOUDY    43  39  87 N7        30.12F
FORT BRIDGER   CLOUDY    48  43  81 W5        30.14S
ROCK SPRINGS   FAIR      50  41  71 W6        30.10S
DIXON          FAIR      52  41  66 CALM      30.14S HAZE
RAWLINS        FAIR      53  42  66 SW14      30.10R
SARATOGA       PTSUNNY   52  41  66 S6        30.12S
LARAMIE        FAIR      50  39  66 SW7       30.09S
CHEYENNE       CLOUDY    54  42  64 CALM      30.07R
TORRINGTON     CLOUDY    52  50  93 CALM      30.01S
PINE BLUFFS    PTSUNNY   52  46  82 CALM      30.07R

$$


USA.gov is the U.S. government's official web portal to all federal, state and local government web resources and services.